Home > Weather > Kumanovo > Past weeks

Flag for Macedonia, Republic of Past Weather in Kumanovo, Macedonia, Republic of — Yesterday and Last 2 Weeks

Now
55 °F

Clear.


Feels Like: 55 °F
Forecast: 57 / 86 °F
Wind: No wind

Location: Skopje-Petrovec

Current Time: Aug 28, 2016 at 4:38:08 AM

Latest Report: Aug 28, 2016 at 4:00 AM


Visibility: 10 mi

Pressure: 30.15 "Hg

Humidity: 88%

Dew Point: 52 °F

Location of KumanovoLocation

Past Weather in Kumanovo — Graph

°F

Kumanovo Temperature Yesterday

Maximum temperature yesterday: 86 °F (at 4:00 PM)
Minimum temperature yesterday: 54 °F (at 5:00 AM)
Average temperature yesterday: 70 °F

High & Low Weather Summary for the Past Weeks

 TemperatureHumidityPressure
High91 °F (Aug 16, 4:00 PM)100% (Aug 20, 5:30 AM)30.27 "Hg (Aug 20, 5:30 AM)
Low52 °F (Aug 13, 4:00 AM)26% (Aug 14, 2:00 PM)29.80 "Hg (Aug 17, 3:30 PM)
Average72 °F61%30.05 "Hg
* Reported Aug 13 3:00 AM — Aug 28 3:00 AM, Kumanovo, Weather by CustomWeather, © 2016

Note: Actual official high and low records may vary slightly from our data, if they occured in-between our weather recording intervals... More about our weather records

Advertising

Kumanovo Weather History for the Previous 24 Hours

Scroll right to see more
 ConditionsComfort  
Time TempWeatherWind HumidityBarometerVisibility
3:00 AM
Sun, Aug 28
57 °FClear.No wind82%30.15 "Hg10 mi
2:30 AM57 °FClear.No wind82%30.15 "Hg10 mi
2:00 AM59 °FClear.No wind82%30.15 "Hg10 mi
1:30 AM61 °FClear.2 mph77%30.15 "Hg10 mi
1:00 AM59 °FClear.No wind77%30.15 "Hg10 mi
12:30 AM61 °FClear.No wind77%30.15 "Hg10 mi
12:00 AM61 °FClear.3 mph77%30.15 "Hg10 mi
11:30 PM
Sat, Aug 27
63 °FClear.1 mph68%30.15 "Hg10 mi
11:00 PM64 °FClear.5 mph68%30.15 "Hg10 mi
10:30 PM66 °FClear.5 mph64%30.15 "Hg10 mi
10:00 PM68 °FClear.2 mph60%30.15 "Hg10 mi
9:30 PM72 °FClear.2 mph53%30.12 "Hg10 mi
9:00 PM73 °FClear.1 mph47%30.12 "Hg10 mi
8:30 PM75 °FClear.5 mph44%30.12 "Hg10 mi
8:00 PM77 °FPassing clouds.5 mph42%30.12 "HgN/A
7:30 PM79 °FScattered clouds.5 mph37%30.09 "HgN/A
7:00 PM81 °FScattered clouds.2 mph34%30.09 "HgN/A
6:30 PM82 °FScattered clouds.2 mph37%30.09 "HgN/A
6:00 PM82 °FSunny.2 mph32%30.09 "Hg10 mi
5:00 PM84 °FSunny.5 mph29%30.09 "Hg10 mi
4:30 PM84 °FSunny.6 mph29%30.09 "Hg10 mi
4:00 PM86 °FPassing clouds.6 mph27%30.09 "HgN/A
3:30 PM84 °FPassing clouds.7 mph29%30.09 "HgN/A
3:00 PM84 °FPassing clouds.5 mph27%30.12 "HgN/A
2:30 PM84 °FPassing clouds.7 mph27%30.12 "HgN/A
2:00 PM84 °FSunny.2 mph27%30.12 "Hg10 mi
1:30 PM82 °FPassing clouds.7 mph30%30.15 "HgN/A
1:00 PM81 °FPassing clouds.6 mph32%30.15 "HgN/A
12:30 PM81 °FSunny.3 mph32%30.15 "Hg10 mi
12:00 PM79 °FSunny.5 mph34%30.18 "Hg10 mi
11:30 AM77 °FSunny.3 mph39%30.18 "Hg10 mi
11:00 AM75 °FSunny.2 mph39%30.21 "Hg10 mi
10:30 AM73 °FSunny.5 mph47%30.21 "Hg10 mi
10:00 AM72 °FSunny.3 mph50%30.21 "Hg10 mi
9:30 AM70 °FSunny.No wind57%30.21 "Hg10 mi
9:00 AM66 °FSunny.No wind60%30.21 "Hg10 mi
8:30 AM64 °FSunny.No wind64%30.21 "Hg10 mi
8:00 AM64 °FSunny.No wind64%30.21 "Hg10 mi
7:30 AM61 °FSunny.No wind68%30.21 "Hg10 mi
7:00 AM59 °FSunny.No wind72%30.21 "Hg10 mi
6:30 AM54 °FClear.No wind82%30.21 "Hg10 mi
5:30 AM54 °FClear.No wind82%30.18 "Hg10 mi
5:00 AM54 °FClear.No wind82%30.18 "Hg10 mi
4:30 AM55 °FClear.No wind82%30.18 "Hg10 mi
4:00 AM59 °FClear.No wind72%30.18 "Hg10 mi
Weather by CustomWeather, © 2016

See weather overviewHow to use our weather pages